Location: LDNL
(36.4545°S, 141.6685°E)
Time: 12:21:08
(UTC+10:00)

Explorer 7 - Pass Details

Date: 19 August 2022
Orbit: 482 x 668 km, 50.3° (Epoch: 26 September)

Event Time Altitude Azimuth Distance (km) Brightness Sun altitude
Rises 17:55:20 0° 259° (W) 3,025 11.9 0.6°
Reaches altitude 10° 17:58:20 10° 242° (WSW) 2,111 10.6 0.0°
Maximum altitude 18:01:50 19° 196° (SSW) 1,570 9.2 -0.6°
Drops below altitude 10° 18:05:19 10° 149° (SSE) 2,080 9.4 -1.3°
Sets 18:08:14 0° 131° (SE) 2,965 10.0 -1.9°
Enters shadow 18:08:27 -1° 130° (SE) 3,036 10.0 -1.9°
